Location: Tarro
(32.8000°S, 151.6667°E)
Time: 15:52:33
(UTC+00:00)

Daily predictions for brighter satellites

Satellite Brightness Start Highest point End
(mag) Time Altitude Azimuth Time Altitude Azimuth Time Altitude Azimuth
Cosmos 2056 Rocket 4.1 12:06:50 10° SSW 12:10:57 53° SW 12:10:57 53° SW
ARIANE 5 R/B 4.0 12:09:55 10° S 12:12:47 37° SSW 12:12:47 37° SSW
Cosmos 1980 Rocket 4.3 12:12:20 10° SSE 12:15:14 15° SE 12:15:14 15° SE
Resurs 01 Rocket 4.3 12:29:21 10° SW 12:31:48 15° WSW 12:33:03 13° W
COSMOS 2406 4.3 12:42:22 38° WSW 12:42:30 38° WSW 12:47:49 10° S
Terra 3.6 12:42:24 10° S 12:44:37 27° S 12:44:37 27° S
Cosmos 2154 Rocket 4.5 12:48:36 10° S 12:53:37 58° SSW 12:53:37 58° SSW
Cosmos 1697 Rocket 3.8 12:50:50 10° SSW 12:54:31 41° S 12:54:31 41° S
Cosmos 1833 Rocket 4.2 13:01:21 31° WSW 13:01:21 31° WSW 13:06:19 10° S
USA 281 3.6 12:56:02 10° SSE 13:02:17 57° SW 13:02:17 57° SW
Cosmos 2082 Rocket 3.4 13:07:03 38° SSW 13:07:03 38° SSW 13:10:45 10° S
Resurs 1-4 Rocket 4.4 13:33:27 16° SE 13:33:27 16° SE 13:35:36 10° SSE
SL-16 R/B 4.2 13:35:52 10° S 13:39:11 21° SE 13:39:11 21° SE
CZ-2D R/B 4.3 13:43:51 18° SE 13:43:51 18° SE 13:46:08 10° SSE
Cosmos 2322 Rocket 4.3 13:41:41 10° SSE 13:45:03 19° SE 13:45:03 19° SE
Cosmos 1980 Rocket 4.0 13:54:30 10° SSW 13:56:58 27° SW 13:56:58 27° SW
Lacrosse 5 4.1 14:04:27 22° S 14:04:27 22° S 14:07:06 10° SSE
Cosmos 2333 Rocket 4.4 14:55:37 10° SSE 14:59:34 19° ESE 15:01:28 16° E
IDEFIX/ARIANE 42P 4.4 15:10:28 25° ESE 15:10:28 25° ESE 15:14:39 10° SSE
Resurs 1-4 Rocket 3.9 15:14:31 24° SW 15:14:31 24° SW 15:16:41 10° SSW
SL-16 R/B 4.4 15:17:13 10° SE 15:21:39 20° E 15:22:19 19° ENE
CZ-2D R/B 4.1 15:25:10 20° SW 15:25:10 20° SW 15:26:54 10° SSW
ADEOS II 3.3 15:26:21 37° S 15:26:21 37° S 15:29:31 10° SSW
SL-16 R/B 4.1 15:19:09 10° SW 15:21:00 20° SW 15:21:00 20° SW
Cosmos 2360 Rocket 3.3 15:23:49 10° SSW 15:27:20 40° SSW 15:27:20 40° SSW
Cosmos 2322 Rocket 3.9 15:24:33 10° SSW 15:26:49 24° SW 15:26:49 24° SW
USA 234 3.5 15:28:17 10° SE 15:34:45 60° SW 15:34:45 60° SW
Cosmos 2297 Rocket 4.1 15:35:15 19° E 15:35:15 19° E 15:39:03 10° SE
CZ-4B R/B 4.4 15:47:30 47° S 15:47:30 47° S 15:51:15 10° S
Cosmos 2173 Rocket 4.5 16:02:40 10° S 16:08:45 54° E 16:10:14 44° NE
Meteor 2-20 4.3 16:11:39 79° WSW 16:11:39 79° WSW 16:17:40 10° S
UNK 4.5 16:09:44 10° SSE 16:13:46 50° ESE 16:13:46 50° ESE
Aureole 1 Rocket 3.8 16:15:00 72° NE 16:15:16 73° ENE 16:20:33 10° SSE
Okean 2 Rocket 4.3 16:12:40 10° SSE 16:16:56 37° E 16:17:17 37° E
ARIANE 5 R/B 3.0 16:25:06 49° SW 16:25:06 49° SW 16:28:54 10° SSW
MSX 3.6 16:25:50 81° NW 16:26:02 83° WNW 16:31:52 10° SSW
Cosmos 1741 Rocket 4.1 16:27:58 70° ENE 16:28:09 71° ENE 16:33:29 10° SSE
ATLAS 2AS CENTAUR R/B 3.6 16:28:30 28° NE 16:30:17 33° ENE 16:35:45 10° SE
CZ-2C R/B 3.8 16:30:27 44° ESE 16:30:30 44° ESE 16:34:23 10° S
Cosmos 1459 Rocket 4.0 16:24:34 10° S 16:31:00 84° E 16:32:42 52° NNE
Cosmos 1300 Rocket 3.7 16:33:07 10° S 16:37:10 70° SE 16:37:10 70° SE
Cosmos 2322 4.2 16:32:22 10° SSW 16:36:38 43° WSW 16:36:38 43° WSW
Cosmos 2237 Rocket 3.8 16:34:02 10° S 16:39:08 33° ESE 16:44:12 10° NE
CZ-2C R/B 3.2 16:39:06 25° NE 16:41:49 50° ESE 16:46:37 10° S
Cosmos 2219 3.1 16:41:03 66° N 16:41:52 83° ENE 16:47:34 10° SSE
CZ-2D R/B 4.4 16:43:15 42° SW 16:43:15 42° SW 16:46:18 10° SSW
Cosmos 2219 Rocket 2.1 16:38:00 10° SSW 16:43:28 62° W 16:43:28 62° W
ATLAS CENTAUR R/B 3.4 16:39:41 10° S 16:43:42 30° SE 16:47:28 10° ENE
Cosmos 2333 Rocket 2.5 16:38:35 10° SSW 16:43:22 49° WSW 16:43:22 49° WSW
Spot 4 Rocket 4.0 16:47:07 63° W 16:47:07 63° W 16:52:09 10° SSW
CZ-4C R/B 3.4 16:44:10 33° N 16:47:59 59° ENE 16:55:26 10° SE
IDEFIX/ARIANE 42P 3.8 16:51:16 28° WSW 16:51:16 28° WSW 16:54:30 10° SW
CENTAUR R/B 4.1 16:45:57 10° S 16:50:39 27° SE 16:55:02 10° ENE
Cosmos 2227 Rocket 2.1 16:53:15 54° NNW 16:54:38 85° ENE 17:00:21 10° SSE
SeaSat 1 4.0 16:51:12 10° SE 16:55:27 28° ENE 16:57:56 19° NNE
Meteor 1-28 Rocket 4.4 16:55:16 10° SSE 16:58:49 36° E 16:59:45 31° NE
Cosmos 2100 Rocket 4.2 16:54:26 10° SSW 17:00:21 48° W 17:01:21 44° WNW
CZ-4C R/B 3.6 16:56:34 10° SSE 17:00:51 72° ENE 17:01:41 55° NNE
COSMOS 2428 2.9 16:58:35 10° SSW 17:04:07 48° WNW 17:04:38 47° WNW
Milstar 3 Cent rocket 2.0 17:03:58 50° N 17:04:10 51° N 17:08:56 10° E
USA 238 DEB 4.3 16:57:48 10° SSW 17:04:28 55° ESE 17:10:50 10° NE
USA 238 4.3 16:57:55 10° SSW 17:04:35 54° SE 17:10:57 10° NE
SL-16 R/B 2.8 16:59:20 10° S 17:05:28 54° WSW 17:07:24 40° WNW
Timation 2 Rocket 4.0 17:04:02 44° WNW 17:05:43 59° WSW 17:11:41 10° SSE
Meteor 1-23 Rocket 4.4 17:05:40 44° WNW 17:06:36 49° W 17:12:03 10° S
Cosmos 1378 Rocket 3.5 17:10:51 58° NW 17:11:33 71° W 17:16:03 10° S
Cosmos 1980 3.9 17:06:29 10° SSW 17:12:14 72° ESE 17:17:54 10° NNE
X-37B 3.5 17:13:36 10° NE 17:13:36 10° NE 17:13:45 10° NE
SL-08 R/B 4.3 17:07:37 10° S 17:13:46 77° W 17:17:42 23° N
CZ-3 R/B 4.3 16:13:53 10° W 17:14:19 78° N 17:27:06 10° ENE
Cosmos 2016 Rocket 4.0 17:08:26 10° SSW 17:14:46 64° W 17:18:10 28° NNW
ARGOS Delta rocket 4.1 17:13:07 32° N 17:15:38 69° W 17:21:11 10° SSW
Meteor 1-15 Rocket 4.3 17:12:45 10° SSW 17:18:18 57° W 17:20:37 33° NNW
Cosmos 2297 Rocket 2.7 17:17:04 36° WNW 17:18:42 45° WSW 17:24:10 10° S
PSLV R/B 3.4 17:17:23 32° N 17:19:22 83° W 17:23:47 10° SSW
Cosmos 1725 Rocket 4.0 17:14:34 10° SSW 17:20:54 68° W 17:25:15 21° N
Okean 1 Rocket 3.3 17:17:32 10° S 17:22:02 69° E 17:25:56 14° NNE
Cosmos 1484 Rocket 3.9 17:21:31 10° NNE 17:25:10 43° ESE 17:28:48 10° S
Cosmos 1805 3.6 17:21:57 10° SSW 17:25:42 43° W 17:25:43 43° W
Cosmos 921 Rocket 3.1 17:21:31 10° SSW 17:26:05 84° ESE 17:30:31 10° NNE
Cosmos 1842 3.3 17:25:59 48° NW 17:26:49 61° W 17:30:48 10° S
ATLAS 5 CENTAUR R/B 3.6 17:21:35 15° N 17:27:28 46° ENE 17:34:10 10° SE
Meteor 2-11 Rocket 4.4 17:22:31 10° SSW 17:28:38 67° W 17:33:30 16° N
Cosmos 2151 Rocket 4.1 17:24:27 10° SSW 17:28:38 40° W 17:29:17 37° WNW
ERBS 3.7 17:25:56 10° SSW 17:29:13 40° SE 17:32:26 10° ENE
Cosmos 2082 3.6 17:28:55 27° NNW 17:32:06 88° WSW 17:37:49 10° SSE
Timation 1 Rocket 4.5 17:30:39 21° N 17:34:48 74° ENE 17:40:47 10° SSE
SL-08 R/B 4.1 17:30:10 10° SSE 17:35:00 52° E 17:39:40 10° N
Cosmos 2061 Rocket 4.4 17:30:49 10° SSW 17:36:38 42° W 17:39:56 23° NW
Cosmos 1447 Rocket 4.4 17:33:17 20° NNW 17:37:42 73° W 17:43:58 10° S
Cosmos 1763 Rocket 3.7 17:36:25 10° SSW 17:41:16 45° WNW 17:45:03 16° NNW
ALOS 2.2 17:38:19 10° N 17:43:00 84° WNW 17:47:45 10° SSW
Cosmos 1733 3.9 17:39:40 10° SSW 17:43:13 33° W 17:43:54 31° WNW
Lacrosse 4 Rocket 1.3 17:39:18 10° SSW 17:43:23 81° ESE 17:47:25 10° NNE
RESURS DK-1 3.4 17:43:23 13° N 17:46:50 43° ENE 17:50:48 10° SE
ADEOS Rocket 4.1 17:40:09 10° SSE 17:47:30 58° E 17:55:07 10° N
Cosmos 841 Rocket 3.4 17:42:34 10° SSW 17:47:51 89° WNW 17:53:01 10° NNE
CBERS 1 LM4 rocket 4.4 17:44:10 10° N 17:49:12 63° WNW 17:54:08 10° SSW
Cosmos 2263 Rocket 3.7 17:45:07 10° NNE 17:50:02 33° ENE 17:55:00 10° SE
Cosmos 1975 Rocket 3.0 17:49:02 14° N 17:52:53 86° W 17:57:25 10° S
TELKOM 3 4.4 17:55:00 22° NNW 17:56:53 48° NE 18:00:05 10° ESE
Cosmos 1570 Rocket 4.0 17:58:05 10° SSW 18:03:25 79° WNW 18:08:39 10° N
NOSS 3-2 (A) 3.6 17:58:44 10° SW 18:04:14 40° WNW 18:09:15 10° N
ADEOS 3.5 17:59:12 10° N 18:04:25 73° WNW 18:09:42 10° SSW
Cosmos 2233 Rocket 4.4 18:01:54 10° SSW 18:07:51 43° W 18:13:45 10° NNW
FENGYUN 3A 4.0 18:03:04 10° N 18:08:13 43° W 18:13:26 10° SSW
CZ-4B R/B 3.8 18:06:36 10° N 18:10:46 80° WNW 18:14:48 10° SSW
SL-16 R/B 2.6 18:05:20 10° SSW 18:11:03 71° ESE 18:16:41 10° NNE
CZ-4B R/B 4.1 18:08:38 10° NNE 18:12:36 49° ESE 18:16:48 10° S
SWIFT 4.5 18:11:12 10° NNW 18:13:10 13° N 18:15:10 10° NE
NOSS 3-2 (C) 3.2 18:08:17 10° SW 18:14:14 63° WNW 18:19:33 10° NNE
Cosmos 1674 3.2 18:12:54 10° N 18:16:35 59° E 18:20:18 10° SSE
Cosmos 1455 Rocket 3.1 18:14:29 10° S 18:19:01 88° ESE 18:23:28 10° N
CZ-2C R/B 4.1 18:18:29 12° WNW 18:20:12 14° W 18:22:53 10° WSW
Meteor 1-31 Rocket 2.9 18:16:45 10° N 18:20:38 59° W 18:24:35 10° SSW
ATLAS 2AS CENTAUR R/B 3.3 18:15:57 13° WNW 18:20:58 35° SW 18:26:39 10° SSE
Cosmos 1726 2.1 18:18:07 10° SSW 18:21:49 63° W 18:25:27 10° N
Cosmos 1953 3.3 18:18:20 10° S 18:22:21 51° E 18:26:18 10° NNE
ATLAS CENTAUR R/B 2.7 18:19:03 10° WSW 18:22:22 21° WNW 18:25:31 10° NNW
Cosmos 2237 Rocket 3.1 18:18:20 10° SW 18:22:59 27° WNW 18:27:38 10° NNW
Cosmos 2208 Rocket 4.1 18:18:26 10° SSW 18:23:46 62° WNW 18:29:07 10° N
Cosmos 1707 3.8 18:22:02 11° NW 18:25:18 29° W 18:28:47 10° SSW
Cosmos 1814 Rocket 4.2 18:20:58 10° SSW 18:26:08 52° WNW 18:31:11 10° N
Cosmos 1356 Rocket 4.4 18:24:47 10° SW 18:28:09 25° W 18:31:28 10° NNW
SeaSat 1 3.5 18:28:32 10° S 18:32:51 30° WSW 18:37:08 10° WNW
Meteosat 1 Rocket2 4.0 18:33:30 10° NW 18:36:39 27° NNE 18:40:11 10° ENE
CZ-4C R/B 4.0 18:29:47 10° WNW 18:36:55 31° SW 18:43:19 10° S
Cosmos 1626 3.3 18:34:17 10° NNE 18:37:51 47° E 18:41:29 10° SSE
Hubble Space Telescope 2.2 18:34:27 10° NW 18:37:59 26° NNE 18:41:29 10° ENE
Cosmos 2227 4.3 18:32:15 10° NNW 18:38:01 89° WSW 18:43:49 10° SSE
COSMOS 2455 4.3 18:33:11 10° N 18:38:37 37° ENE 18:44:05 10° SE
Cosmos 2227 Rocket 4.2 18:37:23 10° WSW 18:39:23 12° SW 18:41:21 10° SSW
IRIDIUM 104 4.4 18:34:23 10° S 18:39:38 71° W 18:44:50 10° N
CENTAUR R/B 2.7 18:36:25 10° SW 18:41:05 31° WNW 18:45:34 10° N
H-2A R/B 3.5 18:23:32 10° W 18:45:45 43° NW 18:49:58 10° NE
